{"data":{"norad_id":66804,"epoch":"2026-09-20T21:13:06.052512Z","epoch_age_seconds":53347,"freshness":"FRESH","line1":"1 66804U 25278P   26263.88409783  .00013858  00000+0  51205-3 0  9994","line2":"2 66804  43.0002  91.8353 0001154 278.8681  81.2040 15.27586891 45067","mean_motion":15.27586891,"eccentricity":0.0001154,"inclination_deg":43.0002,"raan_deg":91.8353,"arg_perigee_deg":278.8681,"mean_anomaly_deg":81.204,"bstar":0.00051205,"rev_number":4506,"period_min":94.266323472921,"perigee_km":482.23668348988,"apogee_km":483.82024047851,"semimajor_km":6861.1654619842,"source":"CELESTRAK","updated_at":"2026-09-21T09:00:36.016004Z"}}